K1PH Weather Reports


Display with metric or nautical units.
time (UTC)temp
F
wind
direction
speed
MPH
gust
MPH
rain 1hr
in
rain 24hr
in
rain mn
in
humidity
%
barometer
mb
20260507062007 47 300 0.0 0.0 0.00 0.00 0.00 92 988.8
20260507061007 47 300 0.0 1.0 0.00 0.00 0.00 92 988.9
20260507055006 47 96 0.0 1.0 0.00 0.00 0.00 93 988.9
20260507054006 47 322 0.0 0.0 0.00 0.00 0.00 93 989.2
20260507053007 47 322 0.0 1.0 0.00 0.00 0.00 93 989.1
20260507052007 47 283 0.0 1.0 0.00 0.00 0.00 93 989.5
20260507051007 47 280 0.0 1.0 0.00 0.00 0.00 93 989.5
20260507050006 48 293 0.0 1.0 0.00 0.00 0.00 93 989.5
20260507045006 48 302 0.0 1.0 0.00 0.00 0.00 92 989.4
20260507043006 48 286 1.0 1.0 0.00 0.00 0.00 92 989.0
20260507042006 48 300 1.0 2.0 0.00 0.00 0.00 92 989.2
20260507041006 48 297 1.0 2.0 0.00 0.00 0.00 92 989.1
20260507040006 49 163 1.0 5.0 0.00 0.00 0.00 92 989.2
20260507035007 49 305 1.0 5.0 0.00 0.00 0.00 93 989.3
20260507034007 49 309 0.0 2.0 0.00 0.00 0.00 93 989.2
20260507033006 49 288 0.0 0.0 0.00 0.00 0.00 93 989.2
20260507032006 49 288 0.0 1.0 0.00 0.00 0.00 92 989.2
20260507031007 50 286 0.0 2.0 0.00 0.00 0.00 93 989.1
20260507030006 50 252 0.0 2.0 0.00 0.00 0.00 93 989.1
20260507025007 50 290 1.0 2.0 0.00 0.00 0.00 93 989.1
20260507024006 50 265 1.0 3.0 0.00 0.00 0.00 92 989.1
20260507023006 51 290 3.0 5.0 0.00 0.00 0.00 92 989.2
20260507021006 53 302 2.0 3.0 0.00 0.00 0.00 92 989.3
20260507015006 54 278 1.0 3.0 0.00 0.00 0.00 92 988.5
20260507014006 55 292 2.0 5.0 0.00 0.00 0.00 91 988.3
20260507013005 56 240 1.0 2.0 0.00 0.00 0.00 93 988.0
20260507012006 56 265 0.0 2.0 0.00 0.00 0.00 93 987.6
20260507004005 58 294 2.0 3.0 0.00 0.00 0.00 92 987.2
20260507003005 59 300 2.0 7.0 0.00 0.00 0.00 94 986.9
20260507002005 59 293 1.0 3.0 0.00 0.00 0.00 95 986.3
20260507001009 59 136 0.0 1.0 0.00 0.00 0.00 94 986.1
20260507000005 59 100 0.0 3.0 0.00 0.00 0.00 94 986.0
20260506235006 59 116 1.0 2.0 0.00 0.00 0.00 94 985.9
20260506234005 59 129 2.0 2.0 0.00 0.00 0.00 94 985.8
20260506233006 59 197 1.0 3.0 0.00 0.00 0.00 94 985.7
20260506232006 59 138 2.0 3.0 0.00 0.00 0.00 94 985.6
20260506231005 59 114 1.0 2.0 0.00 0.00 0.00 94 985.7
20260506230005 59 104 1.0 3.0 0.00 0.00 0.00 94 985.6
20260506225006 59 89 2.0 3.0 0.00 0.00 0.00 94 985.8
20260506224005 59 156 1.0 3.0 0.00 0.00 0.00 93 985.7
20260506223005 59 120 2.0 3.0 0.00 0.00 0.00 93 985.8
20260506222005 59 146 2.0 3.0 0.00 0.00 0.00 93 985.9
20260506221006 59 118 2.0 3.0 0.00 0.00 0.00 93 985.9
20260506220005 59 140 2.0 3.0 0.00 0.00 0.00 93 986.0
20260506215006 59 112 3.0 10.0 0.00 0.00 0.00 92 986.0
20260506214005 60 125 2.0 3.0 0.00 0.00 0.00 92 985.9
20260506213005 60 163 3.0 6.0 0.00 0.00 0.00 92 985.9
20260506212005 60 184 2.0 3.0 0.00 0.00 0.00 92 985.9
20260506211004 60 147 2.0 6.0 0.00 0.00 0.00 93 985.9
20260506210005 60 120 2.0 5.0 0.00 0.00 0.00 93 985.9
20260506205005 60 137 1.0 6.0 0.00 0.00 0.00 93 986.0
20260506204005 60 139 1.0 3.0 0.00 0.00 0.00 93 986.0
20260506203005 60 122 2.0 3.0 0.00 0.00 0.00 93 986.2
20260506202005 60 121 3.0 7.0 0.00 0.00 0.00 93 986.2
20260506201006 60 155 2.0 5.0 0.00 0.00 0.00 93 986.2
20260506194005 60 72 2.0 6.0 0.00 0.00 0.00 95 986.5
20260506193007 60 116 2.0 5.0 0.00 0.00 0.00 94 986.6
20260506192007 60 115 2.0 3.0 0.00 0.00 0.00 94 986.8
20260506190007 60 101 2.0 3.0 0.00 0.00 0.00 94 986.7
20260506185007 61 86 2.0 3.0 0.00 0.00 0.00 95 986.7
20260506184007 60 108 2.0 3.0 0.00 0.00 0.00 94 986.7
20260506183007 60 78 2.0 5.0 0.00 0.00 0.00 94 987.0
20260506182006 60 111 2.0 5.0 0.00 0.00 0.00 94 987.0
20260506181007 60 106 2.0 5.0 0.00 0.00 0.00 94 987.4
20260506180007 60 145 2.0 2.0 0.00 0.00 0.00 94 987.8
20260506174007 60 142 1.0 2.0 0.00 0.00 0.00 93 988.0
20260506173006 60 121 2.0 2.0 0.00 0.00 0.00 93 988.0
20260506172006 60 146 1.0 3.0 0.00 0.00 0.00 92 988.3
20260506170006 61 135 1.0 2.0 0.00 0.00 0.00 91 988.4
20260506165006 61 141 1.0 2.0 0.00 0.00 0.00 90 988.4
20260506164006 62 101 1.0 3.0 0.00 0.00 0.00 88 988.6
20260506163006 62 157 1.0 1.0 0.00 0.00 0.00 88 988.7
20260506162006 62 163 1.0 3.0 0.00 0.00 0.00 87 988.6
20260506161014 63 140 1.0 2.0 0.00 0.00 0.00 84 988.7
20260506160008 63 173 1.0 2.0 0.00 0.00 0.00 85 988.8
20260506155009 64 71 2.0 5.0 0.00 0.00 0.00 83 989.0
20260506154010 64 157 1.0 5.0 0.00 0.00 0.00 81 989.1
20260506153009 64 83 2.0 3.0 0.00 0.00 0.00 80 989.2
20260506151009 63 74 1.0 2.0 0.00 0.00 0.00 82 989.4
20260506144009 63 240 0.0 3.0 0.00 0.00 0.00 80 989.6
20260506143009 63 177 1.0 2.0 0.00 0.00 0.00 79 989.3
20260506142009 63 112 3.0 5.0 0.00 0.00 0.00 80 989.3
20260506141009 63 171 0.0 5.0 0.00 0.00 0.00 79 989.6
20260506135009 63 188 1.0 5.0 0.00 0.00 0.00 81 989.2
20260506134009 62 164 1.0 3.0 0.00 0.00 0.00 80 989.2
20260506133009 62 166 0.0 2.0 0.00 0.00 0.00 82 989.3
20260506132009 61 4 1.0 5.0 0.00 0.00 0.00 83 989.5
20260506130008 60 172 1.0 3.0 0.00 0.00 0.00 84 989.9
20260506125009 60 321 1.0 2.0 0.00 0.00 0.00 85 990.0
20260506124009 59 213 0.0 3.0 0.00 0.00 0.00 85 990.0
20260506123009 59 154 1.0 2.0 0.00 0.00 0.00 87 989.9
20260506121009 57 158 1.0 2.0 0.00 0.00 0.00 88 989.7
20260506120007 56 293 0.0 0.0 0.00 0.00 0.00 90 989.6
20260506115008 55 292 0.0 1.0 0.00 0.00 0.00 91 989.7
20260506114008 54 132 0.0 0.0 0.00 0.00 0.00 91 989.8
20260506112008 53 132 0.0 1.0 0.00 0.00 0.00 92 989.8
20260506111008 52 263 0.0 0.0 0.00 0.00 0.00 93 989.9
20260506110008 51 264 0.0 1.0 0.00 0.00 0.00 93 989.6
20260506105008 51 251 0.0 1.0 0.00 0.00 0.00 93 989.8
20260506104008 51 311 0.0 0.0 0.00 0.00 0.00 94 989.8
20260506103008 50 311 0.0 0.0 0.00 0.00 0.00 94 989.7
20260506102008 50 311 0.0 0.0 0.00 0.00 0.00 94 989.6
20260506101008 50 311 0.0 0.0 0.00 0.00 0.00 94 989.6
20260506100008 50 311 0.0 1.0 0.00 0.00 0.00 94 989.7
20260506094007 50 104 0.0 0.0 0.00 0.00 0.00 94 989.5
20260506093008 50 104 0.0 0.0 0.00 0.00 0.00 93 989.5
20260506092008 50 104 0.0 0.0 0.00 0.00 0.00 93 989.6
20260506091007 50 104 0.0 0.0 0.00 0.00 0.00 93 989.7
20260506090007 51 104 0.0 1.0 0.00 0.00 0.00 93 989.6
20260506085008 51 135 0.0 0.0 0.00 0.00 0.00 93 989.6
20260506083008 51 135 0.0 0.0 0.00 0.00 0.00 92 989.8
20260506082009 52 135 0.0 1.0 0.00 0.00 0.00 92 989.9
20260506081008 52 110 0.0 0.0 0.00 0.00 0.00 91 989.9
20260506073007 53 110 0.0 1.0 0.00 0.00 0.00 90 990.2
20260506072007 54 133 0.0 1.0 0.00 0.00 0.00 90 990.3
20260506071007 54 131 1.0 2.0 0.00 0.00 0.00 89 990.2